TimePST,TemperatureF,Dew PointF,Humidity,Sea Level PressureIn,VisibilityMPH,Wind Direction,Wind SpeedMPH,Gust SpeedMPH,PrecipitationIn,Events,Conditions,WindDirDegrees,DateUTC
12:53 AM,-5.1,-9.9,80,30.32,10.0,South,3.5,-,N/A,,Clear,180,2013-01-14 08:53:00
1:53 AM,-8.0,-14.1,75,30.33,7.0,SSW,3.5,-,N/A,,Clear,200,2013-01-14 09:53:00
2:53 AM,-9.0,-15.0,75,30.36,7.0,Calm,Calm,-,N/A,,Clear,0,2013-01-14 10:53:00
3:53 AM,-8.0,-15.0,71,30.38,7.0,Calm,Calm,-,N/A,,Clear,0,2013-01-14 11:53:00
4:53 AM,-9.0,-16.1,71,30.42,7.0,SSW,3.5,-,N/A,,Clear,200,2013-01-14 12:53:00
5:53 AM,-9.0,-16.1,71,30.46,9.0,South,3.5,-,N/A,,Clear,190,2013-01-14 13:53:00
6:53 AM,-8.0,-15.0,71,30.48,10.0,Calm,Calm,-,N/A,,Clear,0,2013-01-14 14:53:00
7:53 AM,-8.0,-15.0,71,30.53,8.0,SSW,4.6,-,N/A,,Clear,200,2013-01-14 15:53:00
8:53 AM,3.0,-4.0,73,30.49,10.0,South,4.6,-,N/A,,Clear,180,2013-01-14 16:53:00
9:53 AM,10.9,1.9,67,30.50,8.0,Calm,Calm,-,N/A,,Clear,0,2013-01-14 17:53:00
10:53 AM,21.9,3.9,46,30.42,10.0,South,5.8,-,N/A,,Clear,180,2013-01-14 18:53:00
11:53 AM,33.1,3.9,29,30.34,10.0,Variable,3.5,-,N/A,,Clear,0,2013-01-14 19:53:00
12:53 PM,33.1,6.1,32,30.37,10.0,NNE,9.2,-,N/A,,Clear,20,2013-01-14 20:53:00
2:53 PM,33.1,3.9,29,30.45,10.0,NNE,9.2,-,0.01,,Clear,20,2013-01-14 22:53:00
3:53 PM,30.9,7.0,37,30.46,10.0,Variable,4.6,-,N/A,,Clear,0,2013-01-14 23:53:00
4:53 PM,28.9,10.0,45,30.49,10.0,Variable,3.5,-,N/A,,Clear,0,2013-01-15 00:53:00
5:53 PM,26.1,10.9,53,30.53,9.0,Calm,Calm,-,N/A,,Partly Cloudy,0,2013-01-15 01:53:00
6:53 PM,26.1,14.0,60,30.54,10.0,Calm,Calm,-,N/A,,Overcast,0,2013-01-15 02:53:00
7:53 PM,23.0,12.0,63,30.55,10.0,Calm,Calm,-,N/A,,Partly Cloudy,0,2013-01-15 03:53:00
8:53 PM,24.1,14.0,65,30.48,10.0,Calm,Calm,-,N/A,,Partly Cloudy,0,2013-01-15 04:53:00
9:53 PM,21.0,12.0,68,30.47,10.0,South,5.8,-,N/A,,Clear,170,2013-01-15 05:53:00
10:53 PM,18.0,10.9,74,30.43,10.0,South,4.6,-,N/A,,Clear,180,2013-01-15 06:53:00
11:53 PM,17.1,10.9,77,30.39,10.0,Calm,Calm,-,N/A,,Clear,0,2013-01-15 07:53:00